�N����,����,�g�[���i���ԁj���x,�g�[�����x,��g�[���i���ցj���x,����
 2004/07/01, 0:00,27,61,25,21.3
 2004/07/01, 0:15,27.1,65,25,21.3
 2004/07/01, 0:30,27.2,62,25,21.3
 2004/07/01, 0:45,27.1,61,24.9,21.3
 2004/07/01, 1:00,26.9,62,25,21.3
 2004/07/01, 1:15,26.7,62,24.9,21.3
 2004/07/01, 1:30,26.7,63,24.8,21.3
 2004/07/01, 1:45,26.5,64,24.9,21.3
 2004/07/01, 2:00,26.3,64,24.4,21.3
 2004/07/01, 2:15,26.3,64,24.5,21.3
 2004/07/01, 2:30,26.2,65,24.3,21.3
 2004/07/01, 2:45,26,65,24.3,21.3
 2004/07/01, 3:00,26,66,24.2,21.3
 2004/07/01, 3:15,25.9,66,24,21.3
 2004/07/01, 3:30,25.8,66,24,21.3
 2004/07/01, 3:45,25.8,66,23.8,21.3
 2004/07/01, 4:00,25.7,66,23.9,21.3
 2004/07/01, 4:15,25.6,66,23.9,21.3
 2004/07/01, 4:30,25.5,65,23.7,21.3
 2004/07/01, 4:45,25.4,66,23.4,21.2
 2004/07/01, 5:00,25.4,65,23.6,21.2
 2004/07/01, 5:15,25.3,65,23.6,21.2
 2004/07/01, 5:30,25.2,66,23.6,21.2
 2004/07/01, 5:45,25.1,66,23.6,21.1
 2004/07/01, 6:00,25.2,67,23.6,21.1
 2004/07/01, 6:15,25.2,68,24.1,21.1
 2004/07/01, 6:30,25.2,69,24.8,21.1
 2004/07/01, 6:45,25.3,69,25,21.1
 2004/07/01, 7:00,25.5,68,25.5,21.1
 2004/07/01, 7:15,25.5,67,26,21.1
 2004/07/01, 7:30,25.7,67,26.4,21.2
 2004/07/01, 7:45,25.9,65,26.6,21.3
 2004/07/01, 8:00,26,64,26.8,21.3
 2004/07/01, 8:15,26,63,26.8,21.3
 2004/07/01, 8:30,26.3,64,27.2,21.3
 2004/07/01, 8:45,26.6,63,27.3,21.1
 2004/07/01, 9:00,26.7,61,27.3,21.1
 2004/07/01, 9:15,27,60,28,21.1
 2004/07/01, 9:30,27.1,59,27.6,21.1
 2004/07/01, 9:45,27.2,59,27.7,21.1
 2004/07/01,10:00,27.4,59,27.7,21.1
 2004/07/01,10:15,27.5,58,27.8,21.2
 2004/07/01,10:30,27.6,58,27.8,21.2
 2004/07/01,10:45,27.7,58,27.7,21.2
 2004/07/01,11:00,27.8,58,27.8,21.2
 2004/07/01,11:15,27.8,58,27.7,21.2
 2004/07/01,11:30,27.9,58,27.8,21.2
 2004/07/01,11:45,28,57,27.7,21.2
 2004/07/01,12:00,28,57,27.7,21.3
 2004/07/01,12:15,28.2,58,27.8,21.3
 2004/07/01,12:30,28.3,57,27.9,21.3
 2004/07/01,12:45,28.4,57,28.1,21.3
 2004/07/01,13:00,28.5,56,28.2,21.3
 2004/07/01,13:15,28.5,56,28.1,21.3
 2004/07/01,13:30,28.7,54,28.4,21.4
 2004/07/01,13:45,28.7,55,28.2,21.4
 2004/07/01,14:00,28.7,55,28.3,21.4
 2004/07/01,14:15,28.6,55,28.1,21.4
 2004/07/01,14:30,28.6,56,28.1,21.4
 2004/07/01,14:45,28.6,55,28.2,21.5
 2004/07/01,15:00,28.8,53,28.3,21.5
 2004/07/01,15:15,29.1,53,28.3,21.5
 2004/07/01,15:30,29.1,52,28.4,21.7
 2004/07/01,15:45,29.2,52,28.4,21.7
 2004/07/01,16:00,29.3,53,28.4,21.7
 2004/07/01,16:15,29.2,53,28.6,21.7
 2004/07/01,16:30,29.1,53,28.4,21.7
 2004/07/01,16:45,29,53,28.4,21.7
 2004/07/01,17:00,29,53,28.2,21.8
 2004/07/01,17:15,28.8,52,28.3,21.8
 2004/07/01,17:30,28.7,52,28.1,21.8
 2004/07/01,17:45,28.7,53,28.1,21.8
 2004/07/01,18:00,28.4,49,27.6,21.8
 2004/07/01,18:15,28.2,48,27.2,21.8
 2004/07/01,18:30,28,49,27,21.8
 2004/07/01,18:45,27.7,50,26.6,21.8
 2004/07/01,19:00,27.5,50,26.5,21.8
 2004/07/01,19:15,27.2,50,26.2,21.8
 2004/07/01,19:30,27,51,25.9,21.7
 2004/07/01,19:45,26.9,51,25.7,21.7
 2004/07/01,20:00,27,50,25.5,21.7
 2004/07/01,20:15,26.8,51,25.4,21.7
 2004/07/01,20:30,26.9,51,25.2,21.8
 2004/07/01,20:45,26.8,52,25,21.8
 2004/07/01,21:00,26.7,52,24.9,21.8
 2004/07/01,21:15,26.7,52,24.8,21.3
 2004/07/01,21:30,26.4,53,24.7,21.3
 2004/07/01,21:45,26.1,54,24.7,21.3
 2004/07/01,22:00,25.9,54,24.3,21.3
 2004/07/01,22:15,25.7,55,24.1,21.3
 2004/07/01,22:30,25.6,55,24.1,21.3
 2004/07/01,22:45,25.6,57,24,21.2
 2004/07/01,23:00,25.6,56,24,21.2
 2004/07/01,23:15,25.6,59,23.5,21.2
 2004/07/01,23:30,25.5,59,23.6,21.1
 2004/07/01,23:45,25.3,59,23.4,21.1
 2004/07/02, 0:00,25.2,59,23.3,21.1
 2004/07/02, 0:15,25,60,23.1,21.1
 2004/07/02, 0:30,24.9,60,23,21.1
 2004/07/02, 0:45,24.8,61,22.9,21
 2004/07/02, 1:00,24.5,61,22.8,21
 2004/07/02, 1:15,24.4,62,22.8,20.9
 2004/07/02, 1:30,24.3,62,22.6,20.9
 2004/07/02, 1:45,24.2,62,22.6,20.9
 2004/07/02, 2:00,24.1,63,22.4,20.9
 2004/07/02, 2:15,23.9,64,22.4,20.8
 2004/07/02, 2:30,23.9,65,22.2,20.8
 2004/07/02, 2:45,23.7,65,22.1,20.7
 2004/07/02, 3:00,23.8,65,22.1,20.7
 2004/07/02, 3:15,23.6,66,22,20.6
 2004/07/02, 3:30,23.6,66,21.8,20.6
 2004/07/02, 3:45,23.4,67,22.1,20.6
 2004/07/02, 4:00,23.4,67,22,20.5
 2004/07/02, 4:15,23.4,67,21.8,20.5
 2004/07/02, 4:30,23.2,67,21.9,20.4
 2004/07/02, 4:45,23.2,67,22,20.4
 2004/07/02, 5:00,23,68,21.7,20.3
 2004/07/02, 5:15,23.1,68,21.6,20.3
 2004/07/02, 5:30,23,69,21.6,20.3
 2004/07/02, 5:45,23,69,21.8,20.2
 2004/07/02, 6:00,23,69,22.1,20.2
 2004/07/02, 6:15,23,69,22.4,20.1
 2004/07/02, 6:30,23.4,77,22.9,20.1
 2004/07/02, 6:45,23.6,70,23.8,20.3
 2004/07/02, 7:00,23.7,69,24.3,20.3
 2004/07/02, 7:15,23.7,69,24.6,20.5
 2004/07/02, 7:30,23.9,69,25,20.5
 2004/07/02, 7:45,24.1,67,25.5,20.8
 2004/07/02, 8:00,24.1,66,25.8,20.7
 2004/07/02, 8:15,24.4,66,26.1,20.7
 2004/07/02, 8:30,24.6,66,26.3,20.6
 2004/07/02, 8:45,24.9,66,26.5,20.6
 2004/07/02, 9:00,25.2,66,26.6,20.6
 2004/07/02, 9:15,25.6,67,26.9,20.5
 2004/07/02, 9:30,25.8,68,26.7,20.5
 2004/07/02, 9:45,25.8,70,26.5,20.5
 2004/07/02,10:00,25.9,70,26.4,20.5
 2004/07/02,10:15,26.2,69,26.6,20.5
 2004/07/02,10:30,26.6,66,27,20.5
 2004/07/02,10:45,26.7,65,26.9,20.5
 2004/07/02,11:00,27.1,64,27.3,20.5
 2004/07/02,11:15,27.3,62,27.7,20.6
 2004/07/02,11:30,27.5,62,27.8,20.6
 2004/07/02,11:45,28,61,27.9,21.1
 2004/07/02,12:00,28.1,62,28.1,21.1
 2004/07/02,12:15,28.2,62,28.1,21.1
 2004/07/02,12:30,28.3,61,28,21.1
 2004/07/02,12:45,28.3,61,28.2,21.1
 2004/07/02,13:00,28.6,60,28.2,21.1
 2004/07/02,13:15,29,58,28.5,21.3
 2004/07/02,13:30,29.3,57,28.9,21.3
 2004/07/02,13:45,29.7,54,28.8,21.5
 2004/07/02,14:00,29.9,54,29.1,21.6
 2004/07/02,14:15,30,53,29.5,21.6
 2004/07/02,14:30,30.1,52,29.3,20.6
 2004/07/02,14:45,30,52,29.3,21.5
 2004/07/02,15:00,30.2,54,29.4,21.6
 2004/07/02,15:15,29.7,56,29,21.6
 2004/07/02,15:30,29.7,57,29,21.6
 2004/07/02,15:45,29.8,57,29,21.6
 2004/07/02,16:00,29.8,58,29,21.6
 2004/07/02,16:15,29.8,57,29,21.7
 2004/07/02,16:30,29.7,58,29,21.7
 2004/07/02,16:45,29.5,57,28.7,21.7
 2004/07/02,17:00,29.3,58,28.7,21.8
 2004/07/02,17:15,29.1,58,28.6,21.8
 2004/07/02,17:30,29,59,28.4,21.8
 2004/07/02,17:45,29,59,28.4,21.8
 2004/07/02,18:00,28.9,59,28.3,21.8
 2004/07/02,18:15,28.8,59,28.2,21.8
 2004/07/02,18:30,28.7,60,28.1,21.9
 2004/07/02,18:45,28.7,60,27.8,21.9
 2004/07/02,19:00,28.5,59,27.7,21.9
 2004/07/02,19:15,28.5,60,27.7,21.9
 2004/07/02,19:30,28.4,59,27.3,21.9
 2004/07/02,19:45,28.4,59,27.3,21.9
 2004/07/02,20:00,28.2,58,27.1,21.9
 2004/07/02,20:15,28.2,56,27,21.9
 2004/07/02,20:30,28.2,56,27,22
 2004/07/02,20:45,28.2,56,26.9,22
 2004/07/02,21:00,28.2,56,27,22
 2004/07/02,21:15,28.1,55,26.8,21.3
 2004/07/02,21:30,28,55,26.8,21.3
 2004/07/02,21:45,28,55,26.6,21.3
 2004/07/02,22:00,28,56,26.6,21.2
 2004/07/02,22:15,27.7,59,26.6,21.3
 2004/07/02,22:30,27.6,59,26.3,21.3
 2004/07/02,22:45,27.6,59,26.2,21.3
 2004/07/02,23:00,27.5,62,26.2,21.3
 2004/07/02,23:15,27.3,65,26.1,21.3
 2004/07/02,23:30,27.2,67,25.5,21.3
 2004/07/02,23:45,27,67,25.6,21.3
 2004/07/03, 0:00,27.1,66,25.5,21.4
 2004/07/03, 0:15,27.1,64,25.4,21.4
 2004/07/03, 0:30,26.9,63,25.3,21.3
 2004/07/03, 0:45,26.7,63,25.2,21.3
 2004/07/03, 1:00,26.6,63,24.9,21.2
 2004/07/03, 1:15,26.5,63,24.7,21.2
 2004/07/03, 1:30,26.3,64,24.9,21.2
 2004/07/03, 1:45,26.1,64,24.6,21.2
 2004/07/03, 2:00,26,66,24.3,21.2
 2004/07/03, 2:15,25.9,67,24.3,21.1
 2004/07/03, 2:30,25.7,67,24.3,21.1
 2004/07/03, 2:45,25.7,66,24.2,21.1
 2004/07/03, 3:00,25.6,67,24.2,21.1
 2004/07/03, 3:15,25.6,67,24,21
 2004/07/03, 3:30,25.6,67,24.1,21
 2004/07/03, 3:45,25.4,69,24.2,21
 2004/07/03, 4:00,25.5,68,24.1,21
 2004/07/03, 4:15,25.4,69,24,21
 2004/07/03, 4:30,25.2,69,24,21
 2004/07/03, 4:45,25.2,69,23.8,21
 2004/07/03, 5:00,25.2,69,23.7,20.9
 2004/07/03, 5:15,25.1,69,23.8,21.5
 2004/07/03, 5:30,25.1,70,24,21.4
 2004/07/03, 5:45,25.1,70,23.9,21.4
 2004/07/03, 6:00,25.2,72,23.8,21.4
 2004/07/03, 6:15,25.2,72,24,21.3
 2004/07/03, 6:30,25.2,72,24.1,21.3
 2004/07/03, 6:45,25.2,71,24.2,21.2
 2004/07/03, 7:00,25.3,72,24.4,21.2
 2004/07/03, 7:15,25.4,72,24.3,21.1
 2004/07/03, 7:30,25.4,73,24.4,21.1
 2004/07/03, 7:45,25.6,72,24.6,21.1
 2004/07/03, 8:00,25.6,72,24.8,20.8
 2004/07/03, 8:15,25.5,72,24.8,20.8
 2004/07/03, 8:30,25.6,71,24.8,20.9
 2004/07/03, 8:45,25.6,71,24.8,20.8
 2004/07/03, 9:00,25.6,72,25.1,20.8
 2004/07/03, 9:15,25.7,72,25.1,20.8
 2004/07/03, 9:30,25.8,72,25.3,20.8
 2004/07/03, 9:45,26.1,74,25.8,20.8
 2004/07/03,10:00,26.6,73,26.3,20.8
 2004/07/03,10:15,27,71,26.8,20.8
 2004/07/03,10:30,27.4,68,27.4,20.8
 2004/07/03,10:45,27.6,68,27.6,20.8
 2004/07/03,11:00,27.9,68,27.9,20.8
 2004/07/03,11:15,28.2,67,28,20.8
 2004/07/03,11:30,28.4,65,28.1,20.8
 2004/07/03,11:45,28.6,64,28.2,20.8
 2004/07/03,12:00,29.1,62,28.3,20.7
 2004/07/03,12:15,29.2,61,28.6,20.7
 2004/07/03,12:30,29.4,60,28.9,20.7
 2004/07/03,12:45,30,53,29.1,20.7
 2004/07/03,13:00,30.3,53,29.5,20.7
 2004/07/03,13:15,30.4,53,29.3,20.9
 2004/07/03,13:30,30.5,53,29.6,21
 2004/07/03,13:45,30.8,51,30,20.9
 2004/07/03,14:00,31,51,30.1,21
 2004/07/03,14:15,31.1,50,30.1,21
 2004/07/03,14:30,31.4,53,30.1,20.9
 2004/07/03,14:45,31.4,56,29.9,20.9
 2004/07/03,15:00,31.5,58,29.9,21
 2004/07/03,15:15,31.4,57,29.7,21
 2004/07/03,15:30,31.5,58,29.8,21
 2004/07/03,15:45,31.6,56,29.8,21
 2004/07/03,16:00,31.3,56,29.8,21.1
 2004/07/03,16:15,31.1,56,29.8,21.2
 2004/07/03,16:30,31,57,29.7,21.2
 2004/07/03,16:45,30.8,57,29.6,21.2
 2004/07/03,17:00,30.8,57,29.6,21.3
 2004/07/03,17:15,30.6,57,29.6,21.3
 2004/07/03,17:30,30.5,58,29.6,21.3
 2004/07/03,17:45,30.4,56,29.5,21.3
 2004/07/03,18:00,30.3,57,29.4,21.4
 2004/07/03,18:15,30.2,57,29.3,21.3
 2004/07/03,18:30,30.1,59,29.2,21.3
 2004/07/03,18:45,30,59,29,21.4
 2004/07/03,19:00,29.9,58,28.8,21.4
 2004/07/03,19:15,29.8,59,28.7,21.4
 2004/07/03,19:30,29.6,59,28.4,21.4
 2004/07/03,19:45,29.5,59,28.3,21.2
 2004/07/03,20:00,29.4,59,28.2,21.3
 2004/07/03,20:15,29.3,60,28.1,21.2
 2004/07/03,20:30,29.2,62,28,21.3
 2004/07/03,20:45,29.2,63,28,21.1
 2004/07/03,21:00,29.1,63,27.8,21.1
 2004/07/03,21:15,28.9,63,27.6,21.2
 2004/07/03,21:30,28.6,65,27.6,21.2
 2004/07/03,21:45,28.6,65,27.1,21.2
 2004/07/03,22:00,28.5,65,27.1,21.2
 2004/07/03,22:15,28.4,65,27,21.2
 2004/07/03,22:30,28.4,65,26.8,21.2
 2004/07/03,22:45,28.3,65,26.8,21.1
 2004/07/03,23:00,28.1,65,26.8,20.9
 2004/07/03,23:15,27.8,67,26.6,20.9
 2004/07/03,23:30,27.7,67,26.3,21
 2004/07/03,23:45,27.7,66,26,20.7
 2004/07/04, 0:00,27.9,67,25.8,20.6
 2004/07/04, 0:15,27.9,66,25.6,20.7
 2004/07/04, 0:30,27.7,66,25.4,20.6
 2004/07/04, 0:45,27.5,67,25.4,20.6
 2004/07/04, 1:00,27.4,67,25.2,20.6
 2004/07/04, 1:15,27.3,68,25.3,20.7
 2004/07/04, 1:30,27,68,25.1,20.6
 2004/07/04, 1:45,27,69,24.9,20.6
 2004/07/04, 2:00,26.9,69,25,20.6
 2004/07/04, 2:15,26.8,69,25,20.6
 2004/07/04, 2:30,26.7,70,24.7,20.6
 2004/07/04, 2:45,26.6,71,24.8,20.5
 2004/07/04, 3:00,26.5,71,24.6,20.6
 2004/07/04, 3:15,26.5,71,24.6,20.6
 2004/07/04, 3:30,26.4,71,24.5,20.7
 2004/07/04, 3:45,26.4,71,24.6,20.6
 2004/07/04, 4:00,26.3,72,24.5,20.6
 2004/07/04, 4:15,26.4,73,24.8,20.7
 2004/07/04, 4:30,26.3,73,24.8,20.6
 2004/07/04, 4:45,26.4,73,24.8,20.6
 2004/07/04, 5:00,26.4,74,24.9,20.5
 2004/07/04, 5:15,26.4,74,24.8,20.4
 2004/07/04, 5:30,26.3,74,24.8,20.6
 2004/07/04, 5:45,26.3,75,25,20.5
 2004/07/04, 6:00,26.4,77,25.3,20.4
 2004/07/04, 6:15,26.5,77,25.7,20.5
 2004/07/04, 6:30,26.5,76,26.1,20.5
 2004/07/04, 6:45,26.6,76,26.7,20
 2004/07/04, 7:00,26.8,76,27.3,20.1
 2004/07/04, 7:15,27,75,28,20.1
 2004/07/04, 7:30,27.1,74,28.6,20.2
 2004/07/04, 7:45,27.3,74,28.7,20.1
 2004/07/04, 8:00,27.6,73,29.2,20.5
 2004/07/04, 8:15,27.8,71,29.3,20.5
 2004/07/04, 8:30,27.9,72,29.1,20.5
 2004/07/04, 8:45,28,72,28.8,20.5
 2004/07/04, 9:00,28.1,71,28.6,20.4
 2004/07/04, 9:15,28.2,70,28.5,20.5
 2004/07/04, 9:30,28.3,70,28.5,20.5
 2004/07/04, 9:45,28.5,69,28.6,20.5
 2004/07/04,10:00,28.6,70,28.5,20.5
 2004/07/04,10:15,28.9,68,29,20.5
 2004/07/04,10:30,29.1,66,29.3,20.4
 2004/07/04,10:45,29.3,66,29.3,20.4
 2004/07/04,11:00,29.5,65,29.4,20.4
 2004/07/04,11:15,29.7,63,29.7,20.5
 2004/07/04,11:30,30.1,61,30,20.6
 2004/07/04,11:45,30.2,61,30.3,20.7
 2004/07/04,12:00,30.5,60,30.5,20.7
 2004/07/04,12:15,30.7,60,30.5,20.9
 2004/07/04,12:30,30.8,59,30.6,20.9
 2004/07/04,12:45,30.7,59,30.4,20.9
 2004/07/04,13:00,30.9,58,30.7,21
 2004/07/04,13:15,31,59,30.8,21
 2004/07/04,13:30,31.2,58,31,21
 2004/07/04,13:45,31.4,58,31.2,21.1
 2004/07/04,14:00,31.4,58,31.1,21
 2004/07/04,14:15,31.5,58,31.3,21
 2004/07/04,14:30,31.6,57,31.4,21
 2004/07/04,14:45,31.6,57,31.2,21
 2004/07/04,15:00,31.6,57,31.4,21
 2004/07/04,15:15,31.5,58,31.3,21.1
 2004/07/04,15:30,31.5,58,31.3,21.1
 2004/07/04,15:45,31.4,60,31.1,20.9
 2004/07/04,16:00,31.5,59,31.4,19.3
 2004/07/04,16:15,31.4,59,31.1,4.5
 2004/07/04,16:30,31.3,60,31,4.2
 2004/07/04,16:45,31.1,60,30.8,4.4
 2004/07/04,17:00,31,59,30.7,3.8
 2004/07/04,17:15,30.9,59,30.5,3.5
 2004/07/04,17:30,30.8,59,30.5,3.5
 2004/07/04,17:45,30.7,59,30.4,3.8
 2004/07/04,18:00,30.6,59,30.2,3.1
 2004/07/04,18:15,30.5,60,30.1,3.5
 2004/07/04,18:30,30.2,60,29.9,3
 2004/07/04,18:45,30.2,60,29.8,3.2
 2004/07/04,19:00,30,61,29.6,3.3
 2004/07/04,19:15,29.9,62,29.4,3.3
 2004/07/04,19:30,29.9,63,29.2,3.4
 2004/07/04,19:45,29.8,63,29.3,3.4
 2004/07/04,20:00,29.9,63,29.2,3.4
 2004/07/04,20:15,29.9,63,29.1,3.5
 2004/07/04,20:30,29.8,63,29,3.6
 2004/07/04,20:45,29.7,64,28.9,3.6
 2004/07/04,21:00,29.7,64,28.6,3.9
 2004/07/04,21:15,29.7,64,28.8,4
 2004/07/04,21:30,29.8,64,28.5,3.7
 2004/07/04,21:45,29.7,64,28.6,3.9
 2004/07/04,22:00,29.7,66,28.6,3.9
 2004/07/04,22:15,29.7,67,28.4,4
 2004/07/04,22:30,29.7,66,28.4,4.1
 2004/07/04,22:45,29.8,66,28.2,4
 2004/07/04,23:00,29.8,65,28.4,4.1
 2004/07/04,23:15,29.8,65,28.5,4.3
 2004/07/04,23:30,29.7,66,28.2,4.3
 2004/07/04,23:45,29.6,66,28.1,4.3
 2004/07/05, 0:00,29.4,67,28.1,4.3
 2004/07/05, 0:15,29.4,67,28.2,4.5
 2004/07/05, 0:30,29.2,68,28.2,4.6
 2004/07/05, 0:45,29.2,68,28,4.4
 2004/07/05, 1:00,29.1,68,27.9,4.3
 2004/07/05, 1:15,28.9,69,28,10.9
 2004/07/05, 1:30,28.8,69,27.9,5.4
 2004/07/05, 1:45,28.7,69,27.9,5.5
 2004/07/05, 2:00,28.7,69,27.7,5.3
 2004/07/05, 2:15,28.6,70,27.5,5.9
 2004/07/05, 2:30,28.6,70,27.5,10.9
 2004/07/05, 2:45,28.6,70,27.5,5.6
 2004/07/05, 3:00,28.5,70,27.2,5.2
 2004/07/05, 3:15,28.5,71,27,5.5
 2004/07/05, 3:30,28.5,70,27,6.2
 2004/07/05, 3:45,28.4,70,26.9,8.8
 2004/07/05, 4:00,28.3,70,26.9,9.5
 2004/07/05, 4:15,28.2,70,26.7,8.9
 2004/07/05, 4:30,28.1,70,26.5,9
 2004/07/05, 4:45,28.1,70,26.5,8.7
 2004/07/05, 5:00,28,70,26.5,9.1
 2004/07/05, 5:15,27.9,70,26.5,8.4
 2004/07/05, 5:30,27.9,70,26.5,10
 2004/07/05, 5:45,28,70,26.6,8.9
 2004/07/05, 6:00,28,70,26.8,6.4
 2004/07/05, 6:15,27.9,71,26.9,8.6
 2004/07/05, 6:30,28,72,27.4,13
 2004/07/05, 6:45,28.1,71,28.1,11.6
 2004/07/05, 7:00,28.3,70,28.4,12.2
 2004/07/05, 7:15,28.2,70,28.5,12.6
 2004/07/05, 7:30,28.4,70,28.7,9.5
 2004/07/05, 7:45,28.5,67,28.9,6.5
 2004/07/05, 8:00,28.7,67,29.9,10.7
 2004/07/05, 8:15,28.9,66,30.1,7.4
 2004/07/05, 8:30,29.1,65,30.1,11.3
 2004/07/05, 8:45,29.3,65,29.8,11.2
 2004/07/05, 9:00,29.5,63,30,11.9
 2004/07/05, 9:15,29.7,63,30.2,12.5
 2004/07/05, 9:30,30.2,60,30.9,13.4
 2004/07/05, 9:45,30.2,59,30.6,12.6
 2004/07/05,10:00,30.1,60,30.3,12.8
 2004/07/05,10:15,30,62,30.1,12.9
 2004/07/05,10:30,29.9,63,29.8,12.7
 2004/07/05,10:45,30,63,29.9,13.2
 2004/07/05,11:00,30.2,64,30.2,12.9
 2004/07/05,11:15,30.1,62,30.3,12.2
 2004/07/05,11:30,30.2,61,30.1,14.2
 2004/07/05,11:45,30.1,62,30,14.3
 2004/07/05,12:00,30,61,30,14
 2004/07/05,12:15,29.9,61,29.8,14.4
 2004/07/05,12:30,29.8,63,29.7,13.9
 2004/07/05,12:45,29.6,67,29.2,14
 2004/07/05,13:00,29.4,69,29.2,12.8
 2004/07/05,13:15,29.3,69,29,13.9
 2004/07/05,13:30,29.2,69,28.9,14
 2004/07/05,13:45,29.1,69,28.7,14.6
 2004/07/05,14:00,29.1,70,28.6,14.7
 2004/07/05,14:15,29.1,71,28.5,15.1
 2004/07/05,14:30,29.1,72,28.7,14.2
 2004/07/05,14:45,29.1,72,28.7,14.3
 2004/07/05,15:00,29.1,72,28.8,14.3
 2004/07/05,15:15,29.2,72,28.9,17.3
 2004/07/05,15:30,29.4,72,29.1,20.7
 2004/07/05,15:45,29.6,70,29.4,20.3
 2004/07/05,16:00,29.7,69,29.6,20.4
 2004/07/05,16:15,29.8,70,29.7,20.2
 2004/07/05,16:30,30,69,29.9,20
 2004/07/05,16:45,30,68,30,20
 2004/07/05,17:00,30,69,29.9,17.4
 2004/07/05,17:15,30,67,29.9,16.1
 2004/07/05,17:30,30,67,29.9,16.1
 2004/07/05,17:45,30.1,65,30.1,15.1
 2004/07/05,18:00,29.9,63,29.9,15.8
 2004/07/05,18:15,29.9,62,29.7,15.9
 2004/07/05,18:30,29.8,58,29.6,15.2
 2004/07/05,18:45,29.7,58,29.4,15.6
 2004/07/05,19:00,29.6,58,29.2,15
 2004/07/05,19:15,29.4,59,29.1,15.8
 2004/07/05,19:30,29.4,61,28.8,14.7
 2004/07/05,19:45,29.3,61,28.5,14.5
 2004/07/05,20:00,29.2,62,28.5,15
 2004/07/05,20:15,29.1,62,28.4,13.4
 2004/07/05,20:30,29.2,63,28.2,14.7
 2004/07/05,20:45,28.9,64,28.1,14.7
 2004/07/05,21:00,28.5,66,27.9,14.8
 2004/07/05,21:15,28.5,67,27.7,15.3
 2004/07/05,21:30,28.5,67,27.6,16.2
 2004/07/05,21:45,28.4,68,27.3,16
 2004/07/05,22:00,28.2,68,27.2,15.7
 2004/07/05,22:15,28,67,27.1,15.7
 2004/07/05,22:30,27.8,67,27,16
 2004/07/05,22:45,28,68,26.5,16.2
 2004/07/05,23:00,27.8,70,26.5,15.8
 2004/07/05,23:15,27.8,70,26,23.9
 2004/07/05,23:30,27.7,70,25.9,23.7
 2004/07/05,23:45,27.4,70,26.2,23.8
 2004/07/06, 0:00,27.4,70,25.9,23.9
 2004/07/06, 0:15,27.3,71,25.6,23.9
 2004/07/06, 0:30,27.1,71,25.4,23.9
 2004/07/06, 0:45,27.1,71,25.4,24.1
 2004/07/06, 1:00,27.2,70,25.3,24.2
 2004/07/06, 1:15,27,70,25.1,24.2
 2004/07/06, 1:30,26.9,71,25.2,24.2
 2004/07/06, 1:45,26.9,71,25,24.2
 2004/07/06, 2:00,26.7,71,24.8,24.2
 2004/07/06, 2:15,26.6,71,24.9,24.2
 2004/07/06, 2:30,26.6,72,24.6,24.3
 2004/07/06, 2:45,26.5,72,24.3,24.3
 2004/07/06, 3:00,26.4,72,24.3,24.3
 2004/07/06, 3:15,26.3,72,24,24.2
 2004/07/06, 3:30,26.2,72,24,24.3
 2004/07/06, 3:45,26.2,72,24.2,24.3
 2004/07/06, 4:00,26,73,24.5,24.3
 2004/07/06, 4:15,26,73,24,24.3
 2004/07/06, 4:30,26,73,23.9,24.2
 2004/07/06, 4:45,26,73,24,24.2
 2004/07/06, 5:00,25.8,73,24.3,24.2
 2004/07/06, 5:15,25.8,73,23.9,24.1
 2004/07/06, 5:30,25.8,74,23.9,24.1
 2004/07/06, 5:45,25.7,74,24.3,24.1
 2004/07/06, 6:00,25.6,74,24.8,24.1
 2004/07/06, 6:15,25.7,74,25.7,23.9
 2004/07/06, 6:30,25.8,74,26.3,23.9
 2004/07/06, 6:45,25.9,74,26.8,23.9
 2004/07/06, 7:00,26.1,75,27.4,23.9
 2004/07/06, 7:15,26.2,74,26.9,24.1
 2004/07/06, 7:30,26.4,74,28,24
 2004/07/06, 7:45,26.7,73,28.7,24.1
 2004/07/06, 8:00,27,72,29,24.1
 2004/07/06, 8:15,27.3,70,29.2,24.1
 2004/07/06, 8:30,27.4,70,29.2,24.1
 2004/07/06, 8:45,27.6,68,29.2,24.1
 2004/07/06, 9:00,28,69,29.4,24.2
 2004/07/06, 9:15,28.4,67,29.5,24.3
 2004/07/06, 9:30,28.6,63,29.4,24.4
 2004/07/06, 9:45,29,60,29.6,24.4
 2004/07/06,10:00,29.2,59,29.8,24.5
 2004/07/06,10:15,29.5,57,30.1,24.5
 2004/07/06,10:30,29.6,56,30.1,24.5
 2004/07/06,10:45,29.8,57,30.1,24.5
 2004/07/06,11:00,30.2,56,30.3,24.6
 2004/07/06,11:15,30.2,56,30.4,24.6
 2004/07/06,11:30,30.5,53,30.6,24.6
 2004/07/06,11:45,30.6,51,30.5,24.6
 2004/07/06,12:00,30.8,51,30.5,24.7
 2004/07/06,12:15,30.6,51,30.6,24.7
 2004/07/06,12:30,31,49,30.7,24.4
 2004/07/06,12:45,31,50,30.9,24.7
 2004/07/06,13:00,31.2,48,31.1,24.7
 2004/07/06,13:15,31.4,43,31.2,24.7
 2004/07/06,13:30,31.8,41,31.5,24.8
 2004/07/06,13:45,32,41,31.5,24.8
 2004/07/06,14:00,32.1,40,31.7,24.8
 2004/07/06,14:15,32.2,41,31.4,24.9
 2004/07/06,14:30,32.6,38,31.8,24.9
 2004/07/06,14:45,32.5,39,31.7,24.9
 2004/07/06,15:00,32.8,39,31.8,25
 2004/07/06,15:15,32.9,38,31.8,24.9
 2004/07/06,15:30,32.9,37,32,25
 2004/07/06,15:45,33,34,31.9,25
 2004/07/06,16:00,33.2,32,32.3,25.2
 2004/07/06,16:15,33.2,30,32.4,25.2
 2004/07/06,16:30,33.3,28,32.4,25.3
 2004/07/06,16:45,32.9,32,32.1,25.4
 2004/07/06,17:00,32.8,36,32.2,25.4
 2004/07/06,17:15,32.7,38,32.1,25.4
 2004/07/06,17:30,32.3,43,32,25.4
 2004/07/06,17:45,32.2,46,31.9,25.6
 2004/07/06,18:00,31.9,48,31.6,25.6
 2004/07/06,18:15,31.7,49,31.5,25.7
 2004/07/06,18:30,31.3,49,31.1,25.7
 2004/07/06,18:45,31.2,50,30.8,25.8
 2004/07/06,19:00,31,51,30.7,25.7
 2004/07/06,19:15,30.7,50,30.6,25.8
 2004/07/06,19:30,30.6,49,30.4,25.8
 2004/07/06,19:45,30.5,48,30.1,25.8
 2004/07/06,20:00,30.4,47,30.1,25.8
 2004/07/06,20:15,30.3,47,29.8,25.9
 2004/07/06,20:30,30,47,29.7,25.8
 2004/07/06,20:45,30,47,29.6,25.9
 2004/07/06,21:00,29.9,49,29.3,26
 2004/07/06,21:15,29.9,49,29.2,25.5
 2004/07/06,21:30,29.7,52,29,25.2
 2004/07/06,21:45,29.7,53,28.9,25.2
 2004/07/06,22:00,29.6,54,28.7,25.2
 2004/07/06,22:15,29.4,55,28.7,25.2
 2004/07/06,22:30,29.4,56,28.7,24.8
 2004/07/06,22:45,29.4,58,28.5,24.8
 2004/07/06,23:00,29.4,59,28.6,24.8
 2004/07/06,23:15,29.4,58,28.6,24.8
 2004/07/06,23:30,29.4,59,28.5,24.9
 2004/07/06,23:45,29.3,59,28.4,24.9
 2004/07/07, 0:00,29.2,59,28.2,24.8
 2004/07/07, 0:15,29.1,60,28.1,24.9
 2004/07/07, 0:30,29.1,60,28,24.8
 2004/07/07, 0:45,29.1,61,27.9,24.8
 2004/07/07, 1:00,29,62,27.5,24.8
 2004/07/07, 1:15,28.9,62,27.4,24.8
 2004/07/07, 1:30,28.7,63,26.9,24.8
 2004/07/07, 1:45,28.7,63,27.1,24.8
 2004/07/07, 2:00,28.6,64,27.2,24.9
 2004/07/07, 2:15,28.5,64,26.7,24.8
 2004/07/07, 2:30,28.4,65,26.8,24.8
 2004/07/07, 2:45,28.3,65,26.5,24.8
 2004/07/07, 3:00,28.2,65,26.4,24.8
 2004/07/07, 3:15,28.1,66,26.2,24.9
 2004/07/07, 3:30,28,67,26.4,24.9
 2004/07/07, 3:45,27.9,67,26.2,24.8
 2004/07/07, 4:00,27.8,68,26,24.9
 2004/07/07, 4:15,27.8,68,26,24.8
 2004/07/07, 4:30,27.8,68,26,24.8
 2004/07/07, 4:45,27.7,69,25.9,24.8
 2004/07/07, 5:00,27.6,69,25.8,24.8
 2004/07/07, 5:15,27.6,69,25.5,24.8
 2004/07/07, 5:30,27.6,69,25.8,24.8
 2004/07/07, 5:45,27.5,69,26.1,24.8
 2004/07/07, 6:00,27.5,69,26.9,24.8
 2004/07/07, 6:15,27.6,69,27.8,24.8
 2004/07/07, 6:30,27.6,69,28.4,24.8
 2004/07/07, 6:45,27.8,69,29,24.8
 2004/07/07, 7:00,27.9,70,28.7,24.7
 2004/07/07, 7:15,27.9,73,28,24.8
 2004/07/07, 7:30,28,72,27.8,24.7
 2004/07/07, 7:45,28,71,28,24.7
 2004/07/07, 8:00,28.2,71,28.5,24.6
 2004/07/07, 8:15,28.4,71,28.7,24.5
 2004/07/07, 8:30,28.4,73,28.4,24.4
 2004/07/07, 8:45,28.4,71,28.3,24.5
 2004/07/07, 9:00,28.5,70,28.4,24.5
 2004/07/07, 9:15,28.7,69,28.6,24.5
 2004/07/07, 9:30,28.9,68,28.8,24.5
 2004/07/07, 9:45,29.1,66,29,24.5
 2004/07/07,10:00,29.4,67,29.2,24.4
 2004/07/07,10:15,29.5,67,29.3,24.5
 2004/07/07,10:30,29.4,67,29.2,24.5
 2004/07/07,10:45,29.5,67,29.1,24.5
 2004/07/07,11:00,29.7,65,29.5,24.5
 2004/07/07,11:15,29.6,65,29.3,24.4
 2004/07/07,11:30,29.8,65,29.5,24.4
 2004/07/07,11:45,30.1,66,29.8,24.4
 2004/07/07,12:00,30.2,65,29.9,24.5
 2004/07/07,12:15,30.4,64,30.1,24.4
 2004/07/07,12:30,30.9,61,30.3,24.5
 2004/07/07,12:45,30.8,63,30.3,24.5
 2004/07/07,13:00,30.8,62,30.3,24.5
 2004/07/07,13:15,30.9,63,30.4,24.6
 2004/07/07,13:30,31.3,59,30.7,24.6
 2004/07/07,13:45,31.2,59,30.6,24.5
 2004/07/07,14:00,31.4,60,30.7,24.5
 2004/07/07,14:15,31.7,58,30.8,24.5
 2004/07/07,14:30,31.9,58,30.9,24.5
 2004/07/07,14:45,32.3,57,31.4,24.5
 2004/07/07,15:00,32.2,58,31.6,24.5
 2004/07/07,15:15,32.4,57,31.6,24.5
 2004/07/07,15:30,32.4,57,31.7,24.5
 2004/07/07,15:45,32.3,57,31.6,24.6
 2004/07/07,16:00,32.4,58,31.6,24.6
 2004/07/07,16:15,32.5,57,32.1,24.6
 2004/07/07,16:30,32.3,56,32.2,24.5
 2004/07/07,16:45,32.3,57,32,24.5
 2004/07/07,17:00,32.2,56,32,24.5
 2004/07/07,17:15,32.2,56,32.2,24.5
 2004/07/07,17:30,32.1,56,32,24.4
 2004/07/07,17:45,32.1,56,31.7,24.4
 2004/07/07,18:00,31.9,56,31.4,24.4
 2004/07/07,18:15,31.8,57,31.3,24.5
 2004/07/07,18:30,31.6,57,31.1,24
 2004/07/07,18:45,31.4,57,30.9,23.9
 2004/07/07,19:00,31.3,60,30.7,24
 2004/07/07,19:15,31.1,61,30.5,23.9
 2004/07/07,19:30,30.8,62,30.3,23
 2004/07/07,19:45,30.7,62,30.1,23
 2004/07/07,20:00,30.5,63,29.9,23
 2004/07/07,20:15,30.8,64,29.6,23.1
 2004/07/07,20:30,30.7,63,29.5,23.3